星链-31439 (STARLINK-31439 )

导读 | 星芒AI

STARLINK-31439 是 SpaceX Starlink 项目中的一颗低轨通信卫星,属于第二代 Starlink 卫星(Gen2)批次。该卫星于2023年发射,旨在为全球提供高速、低延迟的互联网服务。它运行在约550公里高的近地轨道,配备先进通信设备和激光链路,以提升网络性能和卫星间通信能力。Starlink 项目致力于构建全球卫星互联网网络,特别是在偏远和网络基础设施薄弱地区提供稳定连接。

基本信息
目录编号:
59178
目录名称:
STARLINK-31439
国际标识:
2024-045A
轨道中心:
EARTH
卫星名称:
星链-31439
卫星全名:
星链-31439 (STARLINK-31439 )
卫星状态:
在轨 (已飞行602 天)
发射日期:
2024-03-10 UTC
国别 :
美国 (US)
星等 :
--
轨道信息
数据来源 国际轨道数据 AOE轨道数据
星历时间 2025-11-01T19:50:56+0800
22小时前
查看轨道信息
2025-11-02T10:00:00+0800
8小时前
查看轨道信息
半长轴 6861.171km 6861.184km
偏心率 0.0001597 0.0001525
轨道倾角 43.001° 43.000°
近地点辐角 271.210° 279.611°
升交点赤经 93.228° 89.899°
平近点角 88.856° 86.802°
近地点 481.94km 482.002km
远地点 484.132km 484.096km
周期 94.266分钟 94.267分钟
每日圈数 15.275853 15.275808
详细信息
固有亮度:
5
最大亮度:
0.3
卫星平台:
Starlink v2.0 mini
覆盖范围:
全球
运营商:
太空探索技术公司
运营商所在国:
美国
制造商(研发单位):
太空探索技术公司
制造商所在国:
美国
使用方式:
暂无
卫星简介
星链(Starlink)计划是由太空探索技术公司(SpaceX)提出的一个巨型低轨卫星互联网星座项目,计划在2019年至2024年间在太空搭建由约1.2万颗卫星组成的“星链”网络,其中1584颗将部署在地球上空550千米处的近地轨道,并从2020年开始工作。该卫星仍在工作。
2D轨道图
3D轨道图
轨道高度分析图
轨道倾角分析图
轨道综合分析图
查看轨道综合分析图